User: anonymous   Login
Location: Unspecified
(0.0000°N, 0.0000°E)
Time: 06:46:31
(UTC+00:00)
Language:

TBA - TO BE ASSIGNED - Orbit

View from above orbital plane
View from above orbital plane
View from above satellite
View from above satellite

Ground track
Ground track

The orbit is defined by the following mean orbital elements,

1 68181U          26145.35181227 +.00000000 +00000-0 +87047-3 0 00003
2 68181  53.1590 270.4406 0001168  86.7163 273.3975 15.38848092    03
Epoch (UTC): 25 May 2026 08:26:36
Eccentricity: 0.0001168
inclination: 53.1590°
perigee height: 449 km
apogee height: 450 km
right ascension of ascending node: 270.4406°
argument of perigee: 86.7163°
revolutions per day: 15.38848092
mean anomaly at epoch: 273.3975°

The dashed part of the orbit path shows where the satellite is in the earth's shadow,  

DLR